Regional Weather Roundup
Issued by NWS Cleveland, OH

Home | Current Version | Previous Version | Graphics & Text | Print | Product List | Glossary On
Versions: 1 2 3 4 5 6 7 8 9 10 11 12 13 14 15 16 17 18 19 20 21 22 23 24 25 26 27 28 29 30 31 32 33 34 35 36 37 38 39 40 41 42 43 44 45 46 47 48 49 50
000
ASUS41 KCLE 280900
RWRCLE
OHIO REGIONAL WEATHER ROUNDUP
NATIONAL WEATHER SERVICE WILMINGTON, OH
500 AM EDT SUN MAY 28 2017

NOTE: "FAIR" INDICATES FEW OR NO CLOUDS BELOW 12,000 FEET WITH NO
SIGNIFICANT WEATHER AND/OR OBSTRUCTIONS TO VISIBILITY.

OHZ001>008-015>018-024>027-034-035-043-044-281000-
   NORTHWEST OHIO

CITY           SKY/WX    TMP DP  RH WIND       PRES   REMARKS
DEFIANCE       FAIR      57  53  86 NE6       29.80S
FINDLAY        FAIR      61  53  75 E8        29.77F
TOLEDO EXPRESS FAIR      57  55  93 CALM      29.81F
TOLEDO EXEC    FAIR      62  57  83 E6        29.81F
LIMA           FAIR      60  58  92 E7        29.77F
$$

OHZ009>014-019>023-028>033-038-089-281000-
   NORTHEAST OHIO

CITY           SKY/WX    TMP DP  RH WIND       PRES   REMARKS
CLE-HOPKINS    MOCLDY    61  51  70 CALM      29.84F
CLE-LAKEFRONT  FAIR      60  51  72 CALM      29.81F
CUY CO. ARPT   NOT AVBL
LORAIN-ELYRIA  MOCLDY    57  49  74 CALM      29.83F
ASHTABULA      FAIR      50  49  96 CALM      29.86S
AKRON-CANTON   CLOUDY    60  53  77 E5        29.83F
WOOSTER        NOT AVBL
MANSFIELD      MOCLDY    59  55  87 SE7       29.82F
YOUNGSTOWN     MOCLDY    53  51  93 E7        29.85F
$$

OHZ042-051>053-060>062-070>072-077>081-281000-
  SOUTHWEST OHIO

CITY           SKY/WX    TMP DP  RH WIND       PRES   REMARKS
CINC-COVINGTON MOCLDY    63  61  93 S8        29.79R
CINC-LUNKEN    FAIR      63  62  97 S7        29.80S
HAMILTON       FAIR      66  63  90 S5        29.78S
DAYTON         NOT AVBL
WRIGHT-PAT AFB FAIR      65  65 100 SE3       29.76F
DAYTON GENERAL FAIR      64  61  90 S6        29.77F
WILMINGTON     FAIR      62  62 100 S3        29.79F
$$

OHZ036-037-039>041-045>050-054>059-063>069-073>076-082>088-281000-
  CENTRAL AND SOUTHEAST OHIO

CITY           SKY/WX    TMP DP  RH WIND       PRES   REMARKS
COLUMBUS       CLOUDY    68  66  93 E6        29.77F
OSU AIRPORT    CLOUDY    66  66 100 E3        29.79S
BOLTON FIELD   NOT AVBL
RICKENBACK AFB NOT AVBL
NEWARK         CLOUDY    66  63  90 CALM      29.78F
MARION         FAIR      60  57  89 E3        29.80F
LANCASTER      CLOUDY    69  65  86 SE6       29.78F
ZANESVILLE     CLOUDY    66  63  90 E3        29.80F
NEW PHILLY     FAIR      59  58  96 CALM      29.82F FOG
$$



USA.gov is the U.S. government's official web portal to all federal, state and local government web resources and services.